Location: Rotheul
(50.2849°N, 11.2349°E)
Time: 17:26:26
(UTC+02:00)

OTV 5 (USA 277) - Visible Passes

Search period start: 17 October 2019 00:00
Search period end: 27 October 2019 00:00
Orbit: 310 x 324 km, 54.5° (Epoch: 08 October)

Date Brightness Start Highest point End Pass type
(mag) Time Alt. Az. Time Alt. Az. Time Alt. Az.
17 Oct ? 04:50:44 11° E 04:50:44 11° E 04:50:54 10° E visible
17 Oct ? 06:21:37 30° W 06:22:44 60° SSW 06:25:25 10° SE visible
18 Oct ? 05:05:07 15° E 05:05:07 15° E 05:05:40 10° E visible
18 Oct ? 06:36:01 20° W 06:37:11 28° SW 06:39:35 10° SSE visible
19 Oct ? 05:19:36 16° ESE 05:19:36 16° ESE 05:20:19 10° ESE visible
19 Oct ? 06:50:31 12° WSW 06:51:30 14° SW 06:52:58 10° SSW visible
20 Oct ? 05:34:13 14° SE 05:34:13 14° SE 05:34:41 10° SE visible
